Time,TemperatureF,DewpointF,PressureIn,WindDirection,WindDirectionDegrees,WindSpeedMPH,WindSpeedGustMPH,Humidity,HourlyPrecipIn,Conditions,Clouds,dailyrainin,SolarRadiationWatts/m^2,SoftwareType,DateUTC
2013-01-02 00:03:00,19.0,9.0,-100.00,NW,322,2.0,5.0,65,0.00,,,0.00,0.000000,,2013-01-02 05:03:00,
2013-01-02 00:33:00,18.0,9.0,-100.00,WNW,297,2.0,4.0,68,0.00,,,0.00,0.000000,,2013-01-02 05:33:00,
2013-01-02 00:43:00,18.0,9.0,-100.00,WNW,297,2.0,4.0,68,0.00,,,0.00,0.000000,,2013-01-02 05:43:00,
2013-01-02 00:53:00,18.0,9.0,-100.00,WNW,297,2.0,4.0,68,0.00,,,0.00,0.000000,,2013-01-02 05:53:00,
2013-01-02 01:02:00,18.0,9.0,-100.00,WNW,297,2.0,4.0,68,0.00,,,0.00,0.000000,,2013-01-02 06:02:00,
2013-01-02 01:33:00,18.0,9.0,-100.00,WNW,293,2.0,5.0,68,0.00,,,0.00,0.000000,,2013-01-02 06:33:00,
2013-01-02 01:42:00,18.0,9.0,-100.00,WNW,293,2.0,5.0,68,0.00,,,0.00,0.000000,,2013-01-02 06:42:00,
2013-01-02 01:53:00,18.0,9.0,-100.00,WNW,293,2.0,5.0,68,0.00,,,0.00,0.000000,,2013-01-02 06:53:00,
2013-01-02 02:02:00,18.0,9.0,-100.00,WNW,293,2.0,5.0,68,0.00,,,0.00,0.000000,,2013-01-02 07:02:00,
2013-01-02 02:32:00,19.0,10.0,-100.00,West,273,3.0,6.0,67,0.00,,,0.00,0.000000,,2013-01-02 07:32:00,
2013-01-02 02:42:00,19.0,10.0,-100.00,West,273,3.0,6.0,67,0.00,,,0.00,0.000000,,2013-01-02 07:42:00,
2013-01-02 02:52:00,19.0,10.0,-100.00,West,273,3.0,6.0,67,0.00,,,0.00,0.000000,,2013-01-02 07:52:00,
2013-01-02 03:02:00,19.0,10.0,-100.00,West,273,3.0,6.0,67,0.00,,,0.00,0.000000,,2013-01-02 08:02:00,
2013-01-02 03:32:00,20.0,11.0,-100.00,WNW,288,3.0,7.0,68,0.00,,,0.00,0.000000,,2013-01-02 08:32:00,
2013-01-02 03:42:00,20.0,11.0,-100.00,WNW,288,3.0,7.0,68,0.00,,,0.00,0.000000,,2013-01-02 08:42:00,
2013-01-02 03:53:00,20.0,11.0,-100.00,WNW,288,3.0,7.0,68,0.00,,,0.00,0.000000,,2013-01-02 08:53:00,
2013-01-02 04:02:00,20.0,11.0,-100.00,WNW,288,3.0,7.0,68,0.00,,,0.00,0.000000,,2013-01-02 09:02:00,
2013-01-02 04:32:00,19.0,11.0,-100.00,WNW,301,3.0,6.0,72,0.00,,,0.00,0.000000,,2013-01-02 09:32:00,
2013-01-02 04:43:00,19.0,11.0,-100.00,WNW,301,3.0,6.0,72,0.00,,,0.00,0.000000,,2013-01-02 09:43:00,
2013-01-02 04:53:00,19.0,11.0,-100.00,WNW,301,3.0,6.0,72,0.00,,,0.00,0.000000,,2013-01-02 09:53:00,
2013-01-02 05:02:00,19.0,11.0,-100.00,WNW,301,3.0,6.0,72,0.00,,,0.00,0.000000,,2013-01-02 10:02:00,
2013-01-02 05:32:00,18.0,10.0,-100.00,WNW,289,2.0,6.0,70,0.00,,,0.00,0.000000,,2013-01-02 10:32:00,
2013-01-02 05:43:00,18.0,10.0,-100.00,WNW,289,2.0,6.0,70,0.00,,,0.00,0.000000,,2013-01-02 10:43:00,
2013-01-02 05:53:00,18.0,10.0,-100.00,WNW,289,2.0,6.0,70,0.00,,,0.00,0.000000,,2013-01-02 10:53:00,
2013-01-02 06:02:00,18.0,10.0,-100.00,WNW,289,2.0,6.0,70,0.00,,,0.00,0.000000,,2013-01-02 11:02:00,
2013-01-02 06:33:00,18.0,11.0,-100.00,WNW,295,3.0,6.0,73,0.00,,,0.00,0.000000,,2013-01-02 11:33:00,
2013-01-02 06:43:00,18.0,11.0,-100.00,WNW,295,3.0,6.0,73,0.00,,,0.00,0.000000,,2013-01-02 11:43:00,
2013-01-02 06:53:00,18.0,11.0,-100.00,WNW,295,3.0,6.0,73,0.00,,,0.00,0.000000,,2013-01-02 11:53:00,
2013-01-02 07:03:00,18.0,11.0,-100.00,WNW,295,3.0,6.0,73,0.00,,,0.00,0.000000,,2013-01-02 12:03:00,
2013-01-02 07:33:00,17.0,10.0,-100.00,WNW,297,6.0,9.0,74,0.00,,,0.00,0.000000,,2013-01-02 12:33:00,
2013-01-02 07:43:00,17.0,10.0,-100.00,WNW,297,6.0,9.0,74,0.00,,,0.00,0.000000,,2013-01-02 12:43:00,
2013-01-02 07:53:00,17.0,10.0,-100.00,WNW,297,6.0,9.0,74,0.00,,,0.00,0.000000,,2013-01-02 12:53:00,
2013-01-02 08:03:00,17.0,10.0,-100.00,WNW,297,6.0,9.0,74,0.00,,,0.00,0.000000,,2013-01-02 13:03:00,
2013-01-02 08:33:00,17.0,10.0,-100.00,WNW,299,6.0,13.0,74,0.00,,,0.00,6.000000,,2013-01-02 13:33:00,
2013-01-02 08:43:00,17.0,10.0,-100.00,WNW,299,6.0,13.0,74,0.00,,,0.00,6.000000,,2013-01-02 13:43:00,
2013-01-02 08:53:00,17.0,10.0,-100.00,WNW,299,6.0,13.0,74,0.00,,,0.00,6.000000,,2013-01-02 13:53:00,
2013-01-02 09:02:00,17.0,10.0,-100.00,WNW,299,6.0,13.0,74,0.00,,,0.00,6.000000,,2013-01-02 14:02:00,
2013-01-02 09:33:00,19.0,11.0,-100.00,WNW,303,7.0,15.0,69,0.00,,,0.00,73.000000,,2013-01-02 14:33:00,
2013-01-02 09:43:00,19.0,11.0,-100.00,WNW,303,7.0,15.0,69,0.00,,,0.00,73.000000,,2013-01-02 14:43:00,
2013-01-02 09:53:00,19.0,11.0,-100.00,WNW,303,7.0,15.0,69,0.00,,,0.00,73.000000,,2013-01-02 14:53:00,
2013-01-02 10:03:00,19.0,11.0,-100.00,WNW,303,7.0,15.0,69,0.00,,,0.00,73.000000,,2013-01-02 15:03:00,
2013-01-02 10:33:00,22.0,11.0,-100.00,WNW,303,6.0,14.0,61,0.00,,,0.00,193.000000,,2013-01-02 15:33:00,
2013-01-02 10:43:00,22.0,11.0,-100.00,WNW,303,6.0,14.0,61,0.00,,,0.00,193.000000,,2013-01-02 15:43:00,
2013-01-02 10:53:00,22.0,11.0,-100.00,WNW,303,6.0,14.0,61,0.00,,,0.00,193.000000,,2013-01-02 15:53:00,
2013-01-02 11:03:00,22.0,11.0,-100.00,WNW,303,6.0,14.0,61,0.00,,,0.00,193.000000,,2013-01-02 16:03:00,
2013-01-02 11:33:00,23.0,10.0,-100.00,WNW,295,5.0,11.0,57,0.00,,,0.00,273.000000,,2013-01-02 16:33:00,
2013-01-02 11:43:00,23.0,10.0,-100.00,WNW,295,5.0,11.0,57,0.00,,,0.00,273.000000,,2013-01-02 16:43:00,
2013-01-02 11:54:00,23.0,10.0,-100.00,WNW,295,5.0,11.0,57,0.00,,,0.00,273.000000,,2013-01-02 16:54:00,
2013-01-02 12:03:00,23.0,10.0,-100.00,WNW,295,5.0,11.0,57,0.00,,,0.00,273.000000,,2013-01-02 17:03:00,
2013-01-02 12:33:00,25.0,13.0,-100.00,WNW,288,5.0,11.0,61,0.00,,,0.00,204.000000,,2013-01-02 17:33:00,
2013-01-02 12:43:00,25.0,13.0,-100.00,WNW,288,5.0,11.0,61,0.00,,,0.00,204.000000,,2013-01-02 17:43:00,
2013-01-02 12:54:00,25.0,13.0,-100.00,WNW,288,5.0,11.0,61,0.00,,,0.00,204.000000,,2013-01-02 17:54:00,
2013-01-02 13:03:00,25.0,13.0,-100.00,WNW,288,5.0,11.0,61,0.00,,,0.00,204.000000,,2013-01-02 18:03:00,
2013-01-02 13:33:00,24.0,13.0,-100.00,WNW,295,6.0,13.0,62,0.00,,,0.00,189.000000,,2013-01-02 18:33:00,
2013-01-02 13:43:00,24.0,13.0,-100.00,WNW,295,6.0,13.0,62,0.00,,,0.00,189.000000,,2013-01-02 18:43:00,
2013-01-02 13:53:00,24.0,13.0,-100.00,WNW,295,6.0,13.0,62,0.00,,,0.00,189.000000,,2013-01-02 18:53:00,
2013-01-02 14:03:00,24.0,13.0,-100.00,WNW,295,6.0,13.0,62,0.00,,,0.00,189.000000,,2013-01-02 19:03:00,
2013-01-02 14:33:00,25.0,13.0,-100.00,WNW,283,5.0,12.0,60,0.00,,,0.00,169.000000,,2013-01-02 19:33:00,
2013-01-02 14:43:00,25.0,13.0,-100.00,WNW,283,5.0,12.0,60,0.00,,,0.00,169.000000,,2013-01-02 19:43:00,
2013-01-02 14:53:00,25.0,13.0,-100.00,WNW,283,5.0,12.0,60,0.00,,,0.00,169.000000,,2013-01-02 19:53:00,
2013-01-02 15:03:00,25.0,13.0,-100.00,WNW,283,5.0,12.0,60,0.00,,,0.00,169.000000,,2013-01-02 20:03:00,
2013-01-02 15:33:00,24.0,11.0,-100.00,WNW,299,7.0,14.0,57,0.00,,,0.00,163.000000,,2013-01-02 20:33:00,
2013-01-02 15:42:00,24.0,11.0,-100.00,WNW,299,7.0,14.0,57,0.00,,,0.00,163.000000,,2013-01-02 20:42:00,
2013-01-02 15:53:00,24.0,11.0,-100.00,WNW,299,7.0,14.0,57,0.00,,,0.00,163.000000,,2013-01-02 20:53:00,
2013-01-02 16:03:00,24.0,11.0,-100.00,WNW,299,7.0,14.0,57,0.00,,,0.00,163.000000,,2013-01-02 21:03:00,
2013-01-02 16:33:00,23.0,10.0,-100.00,WNW,292,4.0,14.0,58,0.00,,,0.00,92.000000,,2013-01-02 21:33:00,
2013-01-02 16:43:00,23.0,10.0,-100.00,WNW,292,4.0,14.0,58,0.00,,,0.00,92.000000,,2013-01-02 21:43:00,
2013-01-02 16:53:00,23.0,10.0,-100.00,WNW,292,4.0,14.0,58,0.00,,,0.00,92.000000,,2013-01-02 21:53:00,
2013-01-02 17:03:00,23.0,10.0,-100.00,WNW,292,4.0,14.0,58,0.00,,,0.00,92.000000,,2013-01-02 22:03:00,
2013-01-02 17:32:00,21.0,10.0,-100.00,WNW,296,3.0,12.0,63,0.00,,,0.00,20.000000,,2013-01-02 22:32:00,
2013-01-02 17:43:00,21.0,10.0,-100.00,WNW,296,3.0,12.0,63,0.00,,,0.00,20.000000,,2013-01-02 22:43:00,
2013-01-02 17:53:00,21.0,10.0,-100.00,WNW,296,3.0,12.0,63,0.00,,,0.00,20.000000,,2013-01-02 22:53:00,
2013-01-02 18:03:00,21.0,10.0,-100.00,WNW,296,3.0,12.0,63,0.00,,,0.00,20.000000,,2013-01-02 23:03:00,
2013-01-02 18:33:00,20.0,11.0,-100.00,WNW,300,3.0,7.0,66,0.00,,,0.00,0.000000,,2013-01-02 23:33:00,
2013-01-02 18:43:00,20.0,11.0,-100.00,WNW,300,3.0,7.0,66,0.00,,,0.00,0.000000,,2013-01-02 23:43:00,
2013-01-02 18:53:00,20.0,11.0,-100.00,WNW,300,3.0,7.0,66,0.00,,,0.00,0.000000,,2013-01-02 23:53:00,
2013-01-02 19:02:00,20.0,11.0,-100.00,WNW,300,3.0,7.0,66,0.00,,,0.00,0.000000,,2013-01-03 00:02:00,
2013-01-02 19:38:00,19.0,10.0,-100.00,WNW,282,2.0,8.0,67,0.00,,,0.00,0.000000,,2013-01-03 00:38:00,
2013-01-02 19:53:00,19.0,10.0,-100.00,WNW,282,2.0,8.0,67,0.00,,,0.00,0.000000,,2013-01-03 00:53:00,
2013-01-02 20:02:00,19.0,10.0,-100.00,WNW,282,2.0,8.0,67,0.00,,,0.00,0.000000,,2013-01-03 01:02:00,
2013-01-02 20:33:00,17.0,9.0,-100.00,WNW,290,3.0,7.0,71,0.00,,,0.00,0.000000,,2013-01-03 01:33:00,
2013-01-02 20:43:00,17.0,9.0,-100.00,WNW,290,3.0,7.0,71,0.00,,,0.00,0.000000,,2013-01-03 01:43:00,
2013-01-02 20:53:00,17.0,9.0,-100.00,WNW,290,3.0,7.0,71,0.00,,,0.00,0.000000,,2013-01-03 01:53:00,
2013-01-02 21:02:00,17.0,9.0,-100.00,WNW,290,3.0,7.0,71,0.00,,,0.00,0.000000,,2013-01-03 02:02:00,
2013-01-02 21:33:00,17.0,10.0,-100.00,WNW,291,3.0,8.0,72,0.00,,,0.00,0.000000,,2013-01-03 02:33:00,
2013-01-02 21:43:00,17.0,10.0,-100.00,WNW,291,3.0,8.0,72,0.00,,,0.00,0.000000,,2013-01-03 02:43:00,
2013-01-02 21:53:00,17.0,10.0,-100.00,WNW,291,3.0,8.0,72,0.00,,,0.00,0.000000,,2013-01-03 02:53:00,
2013-01-02 22:02:00,17.0,10.0,-100.00,WNW,291,3.0,8.0,72,0.00,,,0.00,0.000000,,2013-01-03 03:02:00,
2013-01-02 22:47:00,15.0,8.0,-100.00,WNW,290,3.0,6.0,74,0.00,,,0.00,0.000000,,2013-01-03 03:47:00,
2013-01-02 22:53:00,15.0,8.0,-100.00,WNW,290,3.0,6.0,74,0.00,,,0.00,0.000000,,2013-01-03 03:53:00,
2013-01-02 23:03:00,15.0,8.0,-100.00,WNW,290,3.0,6.0,74,0.00,,,0.00,0.000000,,2013-01-03 04:03:00,
2013-01-02 23:32:00,15.0,8.0,-100.00,WNW,295,3.0,8.0,73,0.00,,,0.00,0.000000,,2013-01-03 04:32:00,
2013-01-02 23:43:00,15.0,8.0,-100.00,WNW,295,3.0,8.0,73,0.00,,,0.00,0.000000,,2013-01-03 04:43:00,
2013-01-02 23:53:00,15.0,8.0,-100.00,WNW,295,3.0,8.0,73,0.00,,,0.00,0.000000,,2013-01-03 04:53:00,